User: anonymous   Login
Location: Mainz-Finthen
(49.9906°N, 8.1713°E)
Time: 10:37:15
(UTC+00:00)
Language:

CUTE-I - Orbit

View from above orbital plane
View from above orbital plane
View from above satellite
View from above satellite

Ground track
Ground track

The orbit data is extracted from the following two-line orbital elements,

1 27844U 03031E   21339.91140516  .00000093  00000-0  61656-4 0  9997
2 27844  98.6804 345.5284 0009000 306.1996  53.8349 14.22356123956355
Epoch (UTC): 05 December 2021 21:52:25
Eccentricity: 0.0009000
inclination: 98.6804°
perigee height: 811 km
apogee height: 824 km
right ascension of ascending node: 345.5284°
argument of perigee: 306.1996°
revolutions per day: 14.22356123
mean anomaly at epoch: 53.8349°
orbit number at epoch: 95635

The dashed part of the orbit path shows where the satellite is in the earth's shadow,  

DLR